Weather History for KHOB - March, 2014

Change the Weather History Date:

Thursday, March 27, 2014

  Actual Average Record
Temperature  
Mean Temperature 58 °F -  
Max Temperature 75 °F 68 °F 84 °F (2003)
Min Temperature 42 °F 42 °F 23 °F (1955)
Degree Days  
Heating Degree Days 6    
Growing Degree Days 8 (Base 50)    
Moisture  
Dew Point 29 °F    
Average Humidity 45    
Maximum Humidity 100    
Minimum Humidity 12    
Precipitation  
Precipitation 0.00 in - - ()
Sea Level Pressure  
Sea Level Pressure 29.79 in    
Wind  
Wind Speed 17 mph (SSW)    
Max Wind Speed 30 mph    
Max Gust Speed 38 mph    
Visibility 8 miles    
Events Fog    
Averages and records for this station are not official NWS values.
T = Trace of Precipitation, MM = Missing Value Source: NWS Daily Summary

Daily Weather History Graph

Daily Weather History Graph

Search for Another Location

Airport or City:

Trip Planner

Search our weather history database for the weather conditions in past years. The results will help you decide how hot, cold, wet, or windy it might be!

Date:

Astronomy

Mar. 27, 2014 Rise Set
Actual Time 6:47 AM MDT 7:09 PM MDT
Civil Twilight 6:22 AM MDT 7:34 PM MDT
Nautical Twilight 5:53 AM MDT 8:03 PM MDT
Astronomical Twilight 5:24 AM MDT 8:32 PM MDT
Moon 4:29 AM MDT (3/27) 4:08 PM MDT (3/27)
Length of Visible Light 13h 11m
Length of Day
12h 22m
Waning Crescent, 12% of the Moon is Illuminated
Mar 27
Waning Crescent
Mar 30
New
Apr 7
First Quarter
Apr 15
Full
Apr 22
Last Quarter

Hourly Weather History & Observations

Time (MDT) Temp. Windchill Dew Point Humidity Pressure Visibility Wind Dir Wind Speed Gust Speed Precip Events Conditions
12:15 AM 50.0 °F - 50.0 °F 100% 29.74 in 5.0 mi SSE 15.0 mph 20.7 mph N/A   Overcast
12:35 AM 50.0 °F - 50.0 °F 100% 29.74 in 5.0 mi SSE 18.4 mph 25.3 mph N/A   Overcast
12:55 AM 50.0 °F - 50.0 °F 100% 29.75 in 5.0 mi SSE 20.7 mph 25.3 mph N/A   Overcast
1:15 AM 50.0 °F - 50.0 °F 100% 29.74 in 5.0 mi SSE 15.0 mph 23.0 mph N/A   Overcast
1:35 AM 50.0 °F - 50.0 °F 100% 29.75 in 5.0 mi SSE 15.0 mph 23.0 mph N/A   Overcast
1:55 AM 50.0 °F - 50.0 °F 100% 29.74 in 5.0 mi SSE 17.3 mph 25.3 mph N/A   Overcast
2:15 AM 50.0 °F - 50.0 °F 100% 29.73 in 4.0 mi SSE 18.4 mph 25.3 mph N/A   Mostly Cloudy
2:35 AM 50.0 °F - 50.0 °F 100% 29.73 in 4.0 mi SE 19.6 mph 25.3 mph N/A   Overcast
2:55 AM 50.0 °F - 50.0 °F 100% 29.73 in 4.0 mi SSE 17.3 mph 23.0 mph N/A   Overcast
3:15 AM 50.0 °F - 50.0 °F 100% 29.73 in 4.0 mi SSE 17.3 mph 20.7 mph N/A   Overcast
3:35 AM 48.2 °F - 48.2 °F 100% 29.73 in 3.0 mi SSE 13.8 mph - N/A   Overcast
3:55 AM 48.2 °F - 48.2 °F 100% 29.74 in 2.5 mi SSE 12.7 mph - N/A   Overcast
5:50 AM 44.6 °F 43.1 °F 44.6 °F 100% 29.77 in 2.0 mi South 3.5 mph - N/A   Scattered Clouds
6:13 AM 44.6 °F 40.7 °F 44.6 °F 100% 29.78 in 0.2 mi South 6.9 mph - N/A Fog Fog
6:50 AM 42.8 °F 37.0 °F 42.8 °F 100% 29.80 in 6.0 mi SSW 10.4 mph - N/A   Clear
7:50 AM 48.2 °F - 35.6 °F 62% 29.82 in 10.0 mi SSW 11.5 mph - N/A   Clear
8:50 AM 62.6 °F - 26.6 °F 26% 29.84 in 10.0 mi SW 18.4 mph - N/A   Clear
9:50 AM 66.2 °F - 24.8 °F 21% 29.85 in 10.0 mi WSW 18.4 mph 28.8 mph N/A   Clear
10:50 AM 68.0 °F - 23.0 °F 18% 29.85 in 10.0 mi WSW 26.5 mph 32.2 mph N/A   Clear
11:50 AM 71.6 °F - 23.0 °F 16% 29.84 in 10.0 mi WSW 24.2 mph 32.2 mph N/A   Clear
12:50 PM 73.4 °F - 19.4 °F 13% 29.81 in 10.0 mi WSW 29.9 mph 35.7 mph N/A   Clear
1:50 PM 73.4 °F - 19.4 °F 13% 29.80 in 10.0 mi WSW 25.3 mph 33.4 mph N/A   Clear
2:50 PM 75.2 °F - 19.4 °F 12% 29.78 in 10.0 mi WSW 26.5 mph 34.5 mph N/A   Clear
3:50 PM 75.2 °F - 19.4 °F 12% 29.77 in 10.0 mi SW 21.9 mph 35.7 mph N/A   Clear
4:50 PM 73.4 °F - 19.4 °F 13% 29.77 in 10.0 mi WSW 25.3 mph 35.7 mph N/A   Clear
5:15 PM 73.4 °F - 19.4 °F 13% 29.77 in 10.0 mi WSW 26.5 mph 38.0 mph N/A   Clear
5:35 PM 73.4 °F - 19.4 °F 13% 29.77 in 10.0 mi WSW 24.2 mph 35.7 mph N/A   Clear
5:50 PM 73.4 °F - 19.4 °F 13% 29.77 in 10.0 mi WSW 21.9 mph 33.4 mph N/A   Clear
5:55 PM 73.4 °F - 19.4 °F 13% 29.77 in 10.0 mi SW 23.0 mph 32.2 mph N/A   Clear
6:15 PM 71.6 °F - 17.6 °F 13% 29.78 in 10.0 mi SW 23.0 mph 29.9 mph N/A   Clear
6:35 PM 71.6 °F - 17.6 °F 13% 29.78 in 10.0 mi SW 21.9 mph 28.8 mph N/A   Clear
6:55 PM 69.8 °F - 17.6 °F 14% 29.78 in 10.0 mi SW 18.4 mph 24.2 mph N/A   Clear
7:15 PM 68.0 °F - 17.6 °F 15% 29.78 in 10.0 mi SW 13.8 mph - N/A   Clear
7:35 PM 64.4 °F - 17.6 °F 16% 29.79 in 10.0 mi SW 12.7 mph - N/A   Clear
7:55 PM 64.4 °F - 17.6 °F 16% 29.80 in 10.0 mi SW 11.5 mph - N/A   Clear
8:15 PM 62.6 °F - 17.6 °F 18% 29.81 in 10.0 mi SSW 10.4 mph 16.1 mph N/A   Clear
8:35 PM 59.0 °F - 17.6 °F 20% 29.82 in 10.0 mi SSW 6.9 mph - N/A   Clear
8:55 PM 59.0 °F - 17.6 °F 20% 29.82 in 10.0 mi SW 13.8 mph - N/A   Clear
9:15 PM 62.6 °F - 19.4 °F 19% 29.82 in 10.0 mi SW 12.7 mph - N/A   Clear
9:35 PM 59.0 °F - 19.4 °F 22% 29.83 in 10.0 mi WSW 11.5 mph - N/A   Clear
9:55 PM 59.0 °F - 19.4 °F 22% 29.84 in 10.0 mi SW 11.5 mph - N/A   Clear
10:15 PM 59.0 °F - 19.4 °F 22% 29.84 in 10.0 mi SW 10.4 mph - N/A   Clear
10:35 PM 55.4 °F - 21.2 °F 26% 29.84 in 10.0 mi SW 8.1 mph - N/A   Clear
10:55 PM 55.4 °F - 21.2 °F 26% 29.84 in 10.0 mi WSW 10.4 mph - N/A   Clear
11:15 PM 55.4 °F - 21.2 °F 26% 29.84 in 10.0 mi WSW 11.5 mph - N/A   Clear
11:35 PM 57.2 °F - 23.0 °F 27% 29.82 in 10.0 mi West 13.8 mph - N/A   Clear
11:55 PM 59.0 °F - 23.0 °F 25% 29.82 in 10.0 mi West 15.0 mph - N/A   Clear